RH
60 64 95 94 94 93 92 91 91 93 90 87 88 86 88 89 89 89 90 91 90 88 83 83 86 82 80 81 86 87 87 87 89 88 87 86 82 81 84 90 88 60 85
61 73 94 94 94 92 93 92 90 93 93 90 88 87 88 89 90 89 91 91 90 87 85 84 83 82 83 86 90 89 89 88 88 88 88 86 83 82 85 89 82 70 86
67 77 79 95 94 93 92 92 91 91 94 94 91 89 88 90 90 90 91 90 90 87 86 82 80 82 85 88 90 90 89 88 89 88 85 55 59 83 85 89 88 88 87
66 72 73 96 94 94 93 93 92 90 92 94 94 93 90 90 90 91 92 92 90 88 84 80 79 82 87 89 91 92 90 90 90 90 62 57 56 84 84 86 85 84 85
67 69 71 93 94 95 94 94 93 92 92 94 95 94 93 92 91 91 93 92 90 87 84 79 81 88 88 90 92 91 92 92 94 78 64 60 62 74 81 84 86 88 85
69 68 89 94 93 95 94 94 94 92 92 92 94 94 92 92 91 92 93 92 90 87 84 82 86 91 90 91 92 93 94 95 92 66 63 70 70 80 82 86 88 90 89
74 72 81 96 96 95 94 94 94 93 93 93 93 94 93 92 92 93 93 91 91 87 84 86 89 90 91 92 93 94 95 94 66 70 64 66 74 83 82 87 90 90 90
80 80 80 94 96 95 95 95 95 93 93 93 93 93 93 94 94 93 93 93 93 90 89 88 89 91 93 94 94 95 95 91 77 73 69 63 81 82 81 86 90 91 91
84 86 84 85 87 98 98 97 97 95 94 94 94 95 94 95 95 93 93 93 93 92 90 89 91 91 93 95 95 95 94 93 83 79 74 66 85 82 83 86 89 91 92
86 85 84 85 89 87 87 98 97 96 96 95 95 96 96 96 95 94 94 94 92 91 90 92 92 91 94 94 96 95 94 94 88 82 81 65 86 81 82 85 87 90 91
85 86 86 85 85 86 86 86 96 96 96 96 94 96 95 75 77 78 86 93 95 93 92 93 92 92 95 96 95 95 96 89 91 95 82 87 84 80 81 86 89 90 90
77 90 85 88 89 87 79 87 86 83 81 83 83 82 80 80 77 77 85 95 96 92 93 94 92 93 94 76 77 92 76 82 88 94 79 94 83 80 82 86 89 90 89
64 72 84 86 87 89 86 83 85 82 82 90 90 89 89 88 80 78 84 76 79 89 79 84 81 74 74 74 73 77 77 77 91 92 79 95 80 81 80 84 86 87 88
67 60 71 77 86 89 86 84 81 83 84 89 92 92 92 94 88 84 82 79 80 78 89 79 85 81 77 74 75 76 75 80 96 94 85 96 80 83 81 82 84 86 87
33 53 71 77 83 83 90 86 86 81 81 84 92 89 87 91 87 89 88 85 76 77 82 86 85 78 76 75 75 75 74 81 94 94 89 94 92 84 82 79 79 82 85
21 24 62 75 79 82 84 88 85 81 77 85 92 87 88 86 90 89 93 90 85 83 86 91 91 85 79 77 81 82 80 83 96 95 95 91 97 88 85 83 81 81 82
21 20 28 65 78 83 81 83 86 82 79 81 86 90 89 88 90 90 90 90 85 85 88 95 91 92 89 81 80 90 86 92 98 97 97 96 90 96 94 92 84 81 78
40 40 33 26 69 85 84 88 86 88 86 86 85 88 87 87 90 92 90 90 84 91 94 97 95 94 92 93 94 94 85 92 96 99 98 97 80 66 92 93 92 85 84
51 59 48 38 44 74 83 82 84 86 90 89 87 85 90 88 89 91 86 86 85 91 94 95 94 90 93 95 91 92 93 91 94 97 99 98 79 69 67 92 93 89 88
58 62 63 54 41 60 78 86 88 91 88 84 86 85 85 90 90 92 90 91 88 89 94 94 92 91 91 94 89 93 92 92 95 98 98 98 95 79 68 69 72 70 90
59 61 64 67 64 44 78 83 86 89 86 88 84 86 87 90 92 92 93 91 90 92 92 92 93 91 98 94 98 98 97 96 95 96 98 98 98 96 85 66 63 61 70
61 62 65 66 66 59 55 68 73 82 87 84 88 91 89 90 92 94 92 92 93 94 93 94 93 97 96 94 97 97 99 99 99 97 98 98 96 95 94 74 65 65 60
62 64 63 67 68 69 68 66 77 84 92 96 96 97 92 90 91 92 88 92 94 93 96 94 92 95 95 96 92 92 99 98 98 98 98 96 97 96 91 79 66 63 60
62 64 67 69 70 69 72 70 73 78 78 80 84 92 96 96 97 98 94 92 93 93 93 92 91 94 95 97 95 86 83 79 90 99 98 98 97 96 95 82 67 64 59
64 67 72 73 73 74 78 73 74 80 76 75 82 93 96 92 93 88 90 96 94 93 90 88 96 96 95 95 96 96 92 91 82 87 99 99 99 95 93 88 77 66 64
67 72 75 77 79 76 80 76 80 79 79 86 84 94 89 88 88 83 90 95 92 92 90 90 92 94 95 93 94 94 88 86 83 79 87 92 96 98 97 96 92 79 68
Wind_Speed
7 15 17 16 15 12 10 8 9 10 14 16 18 20 20 20 19 19 20 18 17 16 17 16 14 13 14 12 11 11 9 9 10 13 14 15 16 15 15 12 11 14 14
9 14 17 17 15 13 10 8 8 9 11 13 15 18 18 18 18 18 19 19 18 17 17 17 14 13 12 11 11 10 10 11 12 12 15 14 14 15 15 11 8 15 14
14 14 17 16 15 13 11 9 9 10 11 11 12 15 17 17 17 17 17 17 17 16 17 17 15 14 12 10 11 12 11 12 12 14 14 12 13 15 14 12 12 13 14
14 15 16 17 17 15 12 10 10 9 11 11 10 12 15 16 16 15 15 14 15 16 16 17 16 14 13 12 12 12 13 12 13 13 10 11 13 16 15 14 14 15 14
14 16 16 18 16 15 13 11 10 9 11 11 10 10 13 15 16 15 13 13 15 16 16 16 15 12 13 12 13 13 12 13 13 12 12 11 10 14 16 15 14 13 13
14 15 16 17 17 16 15 14 13 12 11 12 11 11 12 14 15 14 13 14 15 15 15 14 13 11 12 11 12 12 12 12 13 11 12 10 9 16 17 13 13 13 14
7 12 16 16 18 18 17 17 16 14 13 13 12 11 12 13 14 14 13 13 14 14 13 14 13 11 11 12 12 12 12 13 11 11 11 12 9 15 17 16 14 15 15
7 8 12 13 14 14 15 15 14 15 15 14 14 12 11 11 11 12 13 12 12 11 11 10 11 11 11 12 13 12 11 11 11 12 11 11 10 16 18 17 15 15 16
2 5 7 10 12 9 7 8 9 11 13 14 14 13 12 10 11 11 11 10 11 11 11 10 10 12 12 13 14 14 15 11 7 8 10 8 13 16 19 19 17 16 17
4 4 6 7 8 11 12 8 10 10 10 10 11 11 13 12 11 11 10 9 10 9 10 9 12 13 14 14 14 16 16 14 8 9 8 8 15 20 20 20 19 18 18
5 3 3 5 6 8 9 9 9 10 9 8 9 9 11 10 12 12 11 10 8 9 9 11 13 12 11 12 13 11 10 6 7 4 6 10 16 19 22 19 18 18 18
7 7 6 4 4 5 7 8 10 10 10 10 10 11 9 11 10 10 9 9 9 10 9 9 11 11 11 8 8 10 6 8 6 3 5 8 17 19 21 19 18 19 18
8 8 9 6 6 6 6 6 5 6 7 6 9 10 9 8 8 8 6 7 8 9 7 7 8 9 11 9 9 8 8 7 4 4 5 8 18 20 21 21 21 20 18
8 11 13 15 10 7 5 5 7 7 7 6 7 11 9 6 8 8 6 8 8 7 8 8 6 9 10 11 12 11 9 6 3 2 4 7 17 22 23 22 23 22 20
9 11 13 15 15 12 10 6 6 9 8 9 8 11 9 7 8 7 7 7 8 8 8 7 8 9 11 11 10 10 9 8 4 2 4 10 14 23 23 23 20 20 21
12 10 10 15 16 16 15 14 10 9 10 8 7 10 11 8 7 7 7 7 8 8 6 7 6 8 9 9 10 9 10 8 3 2 2 7 12 17 20 20 21 21 20
12 15 10 13 13 14 18 15 11 11 10 10 8 10 11 9 8 8 7 7 8 7 9 6 6 5 6 8 10 7 9 7 5 2 2 7 8 13 16 12 17 17 18
12 12 15 10 13 19 17 13 11 11 11 8 8 8 14 11 9 8 7 7 9 7 7 6 6 6 6 6 5 7 9 7 7 5 3 5 7 9 12 20 15 14 16
13 14 15 12 14 16 16 13 14 15 11 11 10 10 13 13 12 9 8 8 11 8 7 7 6 7 7 7 7 6 6 7 6 3 4 3 9 10 9 11 12 12 13
13 13 15 13 13 14 12 11 9 9 11 10 12 12 15 11 13 10 8 9 10 9 8 7 8 6 7 6 6 6 6 5 5 5 5 3 3 7 11 12 10 10 12
12 16 15 16 16 11 11 12 11 12 12 12 12 14 15 12 13 12 9 9 10 9 10 10 8 10 5 7 4 3 2 4 5 5 4 4 4 3 5 9 8 8 10
17 14 18 17 16 13 12 11 12 12 11 10 8 11 14 15 14 12 12 11 10 8 11 11 9 5 4 9 4 4 3 1 1 6 5 6 7 5 4 8 11 11 11
18 18 16 20 19 16 16 12 10 8 5 7 11 12 15 16 14 12 13 10 11 10 9 12 11 10 7 8 9 5 3 3 3 1 7 7 8 6 5 6 11 11 11
17 17 17 19 19 17 16 16 19 13 14 13 12 9 10 12 12 8 6 11 12 8 10 11 10 9 8 9 7 7 2 5 4 3 2 5 8 10 8 6 10 11 12
16 17 16 19 19 17 18 19 16 15 13 9 10 14 13 15 16 16 11 14 12 10 11 14 11 10 9 7 7 5 3 2 4 4 4 3 2 7 8 9 8 10 12
16 16 17 19 19 18 20 19 20 20 16 11 14 12 13 12 11 15 18 15 12 11 12 12 12 13 10 9 7 7 9 6 6 4 3 8 8 4 5 5 6 7 9
Wind_Direction
182 162 148 145 147 155 153 158 143 138 146 153 155 158 159 159 156 154 151 150 152 155 152 152 151 156 163 161 159 155 151 145 140 142 138 135 134 134 127 119 135 124 124
151 166 149 144 147 154 153 153 138 129 137 148 159 159 158 157 155 156 152 151 155 160 154 155 159 158 157 161 153 147 143 145 137 131 131 131 134 133 128 118 129 122 127
152 159 154 141 146 154 159 152 145 140 132 136 151 158 156 157 157 155 155 154 158 159 155 160 159 151 154 145 151 149 145 143 135 139 147 144 138 134 132 126 122 132 127
154 158 161 150 150 154 158 153 150 144 131 130 142 150 153 153 156 155 156 155 156 157 158 166 161 155 139 143 146 146 148 144 142 135 150 151 146 140 140 134 134 134 132
168 166 166 155 149 151 153 152 151 148 140 133 136 145 151 155 156 157 156 156 158 159 163 168 164 155 145 147 147 149 146 140 131 154 150 154 149 144 147 142 141 134 146
175 171 157 155 155 153 156 159 158 158 151 141 141 149 156 155 154 153 155 161 162 164 167 167 157 158 154 151 147 144 142 137 148 154 154 138 156 153 151 151 133 130 127
218 179 166 156 158 161 165 166 164 161 156 152 152 156 161 160 155 155 159 168 169 171 174 168 158 163 159 148 144 143 143 141 161 165 161 159 167 159 156 147 140 135 132
204 213 173 160 159 165 170 170 165 165 163 160 161 165 163 157 154 160 169 170 173 173 178 172 158 167 154 151 148 147 143 160 168 168 169 167 169 169 159 151 142 136 130
137 195 191 175 172 159 167 167 165 168 169 166 166 165 165 166 163 171 181 180 182 176 176 172 162 162 161 160 155 154 153 159 174 169 170 180 177 178 162 153 142 137 131
93 191 207 198 181 187 189 173 176 175 174 173 174 170 167 169 174 177 182 182 182 177 177 178 166 167 172 172 167 167 160 146 178 178 180 189 187 178 164 156 150 143 138
131 175 205 213 211 199 194 191 185 185 179 179 181 181 170 185 187 186 190 181 179 172 175 179 173 170 158 159 159 158 158 157 172 177 196 186 187 180 164 157 153 147 141
183 185 199 205 221 222 218 211 201 200 196 189 197 197 195 189 187 192 189 181 169 174 179 179 170 157 168 176 172 156 179 176 178 194 202 198 188 182 166 160 152 148 145
200 181 191 200 214 215 218 213 217 204 205 193 192 198 203 193 185 188 189 192 195 181 190 194 177 185 183 185 184 186 188 176 182 203 203 212 188 180 172 163 155 151 146
223 219 194 189 190 211 221 219 215 218 205 206 195 197 195 195 192 185 187 187 187 186 186 193 190 189 192 196 195 191 187 188 187 124 267 251 205 179 173 163 162 157 153
260 245 213 197 195 192 200 215 214 216 217 214 198 200 193 194 197 178 183 180 188 182 185 193 191 190 197 202 201 197 190 190 160 129 262 248 207 181 171 169 166 162 165
304 280 245 215 205 189 200 194 205 213 214 212 202 207 197 195 193 184 176 177 181 180 168 179 186 191 200 206 207 202 200 188 130 85 298 281 203 183 169 170 172 173 177
313 310 276 242 230 210 209 203 198 201 212 213 207 199 194 196 195 183 178 176 180 170 161 159 175 180 204 209 211 189 192 159 139 116 298 281 199 173 160 188 176 179 180
324 316 305 279 226 214 212 210 203 200 197 200 201 202 193 189 186 182 184 182 183 161 160 164 168 176 194 194 186 196 193 171 150 151 214 258 201 180 171 176 189 176 180
328 321 312 294 260 230 219 209 210 208 198 197 196 200 198 183 179 185 187 185 180 171 168 167 173 181 182 194 188 172 175 178 171 133 204 220 233 186 175 170 169 169 176
329 322 314 311 276 248 225 216 213 204 206 201 199 201 200 183 174 184 185 184 177 176 169 172 178 183 190 182 175 167 177 174 167 174 198 167 245 221 181 177 173 182 174
333 326 323 311 308 270 222 207 210 215 208 205 197 191 194 183 179 185 180 184 178 180 174 174 178 181 168 157 121 104 80 170 195 191 182 165 188 228 193 181 182 189 184
330 325 318 310 303 295 244 221 209 209 217 210 192 190 188 182 184 181 180 183 177 175 174 177 178 169 177 172 155 123 153 103 200 203 190 192 181 178 195 195 187 190 191
326 324 319 309 301 289 283 233 212 209 212 188 192 189 197 185 181 180 192 180 176 177 178 181 183 177 182 186 167 138 153 185 131 180 197 196 176 183 184 196 190 187 194
324 321 319 308 299 288 276 243 210 204 205 205 198 191 186 162 161 171 204 193 189 180 180 183 188 184 180 186 178 202 204 150 170 167 202 198 191 188 184 195 193 195 195
331 327 317 307 296 287 278 243 212 208 210 206 199 175 169 170 171 170 138 226 201 184 191 184 184 186 194 186 185 163 161 176 164 146 151 173 208 198 189 180 196 201 199
336 327 320 311 307 299 291 232 215 211 206 193 189 181 182 179 185 177 180 183 196 190 193 185 186 196 195 195 189 181 199 186 184 165 150 188 189 180 171 166 190 202 202